Regional Weather Roundup
Issued by NWS

Home | Current Version | Previous Version | Graphics & Text | Print | Product List | Glossary On
Versions: 1 2 3 4 5 6 7 8 9 10 11 12 13 14 15 16 17 18 19 20 21 22 23 24 25 26 27 28 29 30 31 32 33 34 35 36 37 38 39 40 41 42 43 44 45 46 47 48 49 50
111
ASUS43 KMPX 261501
RWRMN
WEATHER ROUNDUP FOR MINNESOTA
NATIONAL WEATHER SERVICE TWIN CITIES/CHANHASSEN MN
1000 AM CDT WED JUL 26 2017


NOTE: "FAIR" INDICATES FEW OR NO CLOUDS BELOW 12,000 FEET WITH NO
SIGNIFICANT WEATHER AND/OR OBSTRUCTIONS TO VISIBILITY. N/A MEANS
CURRENT SKY AND/OR WEATHER CONDITIONS ARE NOT AVAILABLE.

MNZ060>063-068>070-261600-
   Twin Cities Metro

CITY           SKY/WX    TMP DP  RH WIND       PRES   REMARKS
TWIN CITIES    CLOUDY    73  70  90 NW7       30.01S
ST PAUL        LGT RAIN  73  72  96 W5        30.00S
CRYSTAL        MOSUNNY   73  68  84 NW5       30.00S
BLAINE         CLOUDY    75  72  88 NW5       30.01S
LAKEVILLE      DRIZZLE   70  70 100 CALM      30.02S
SOUTH ST PAUL  CLOUDY    72  71  99 SW3       30.00R
LAKE ELMO      FAIR      72  70  94 NW8       30.02S
$$
MNZ001>005-007-008-013>017-022>024-027-028-261600-
   Northwest Minnesota

CITY           SKY/WX    TMP DP  RH WIND       PRES   REMARKS
BEMIDJI        SUNNY     71  59  65 NW13      30.02S
HALLOCK        SUNNY     72  64  78 N9        30.02S
ROSEAU         SUNNY     72  64  78 NW8       30.01R
WARROAD        SUNNY     72  64  78 NW8       30.01R
CROOKSTON      SUNNY     70  63  78 N8        30.04R
FOSSTON        SUNNY     70  61  73 N10       30.05R
DETROIT LAKES  SUNNY     70  61  73 NW8       30.06S
MOORHEAD       SUNNY     72  61  68 N7        30.05R
PARK RAPIDS    SUNNY     74  59  59 N7        30.04R
MAHNOMEN       FAIR      70  61  74 N6        30.04R
$$
MNZ006-009>011-018-025>026-261600-
   North Central Minnesota

CITY           SKY/WX    TMP DP  RH WIND       PRES   REMARKS
BAUDETTE       MOSUNNY   72  63  73 NW9       29.99R
FLAG ISLAND    SUNNY     70  61  73 N12       29.98R
INTL FALLS     MOSUNNY   73  61  65 W7        29.97R
WASKISH        SUNNY     72  63  73 W7        30.01R
BIG FORK       MOSUNNY   72  61  68 CALM      30.00S
LONGVILLE      SUNNY     72  61  68 W3        30.03R
GRAND RAPIDS   SUNNY     71  61  70 VRB3      30.03S
CRANE LAKE     SUNNY     70  57  64 W3        29.99R
ORR            SUNNY     70  55  60 CALM      29.97R
COOK             N/A     70  57  64 CALM      30.00S
WALKER         FAIR      71  59  65 W7        30.03R
$$
MNZ012-019>021-037-261600-
   Northeast Minnesota

CITY           SKY/WX    TMP DP  RH WIND       PRES   REMARKS
DULUTH         SUNNY     73  58  59 VRB5      30.00S
ELY            SUNNY     72  55  56 W6        29.99R
HIBBING        SUNNY     70  59  68 NW6       30.00S
EVELETH        SUNNY     73  59  61 NW5       30.01S
DULUTH HARBOR  SUNNY     73  64  73 W3        29.98F
TWO HARBORS    SUNNY     75  64  69 CALM      29.96F
SILVER BAY     SUNNY     75  63  64 CALM      29.96S
GRAND MARAIS     N/A     66  60  81 SW9       29.93S
G MARAIS ARPRT SUNNY     70  54  56 W3        29.98S
$$
MNZ029>031-032-039>041-046>048-054>057-064-261600-
   West Central Minnesota

CITY           SKY/WX    TMP DP  RH WIND       PRES   REMARKS
FERGUS FALLS   SUNNY     73  61  64 CALM      30.05R
WHEATON        CLOUDY    75  57  53 N3        30.07S
MORRIS         CLOUDY    73  63  68 CALM      30.05R
ALEXANDRIA     CLOUDY    74  60  61 N7        30.07R
ELBOW LAKE     FAIR      72  61  69 CALM      30.06S
WADENA         SUNNY     72  59  64 CALM      30.04S
GLENWOOD       CLOUDY    75  61  60 NE7       30.07S
BENSON         CLOUDY    73  61  64 E5        30.07R
ORTONVILLE     CLOUDY    72  64  78 MISG      30.06R
MADISON        CLOUDY    75  64  69 E7        30.06R
WILLMAR        FAIR      73  66  78 NE6       30.06S
$$
MNZ033>034-036-042>043-049>051-058-059-261600-
   Central Minnesota

CITY           SKY/WX    TMP DP  RH WIND       PRES   REMARKS
ST CLOUD       PTSUNNY   73  68  84 N6        30.03R
SAUK CENTRE    FAIR      73  58  61 E6        30.06S
PAYNESVILLE    CLOUDY    71  62  72 CALM      30.06S
AITKIN         SUNNY     72  61  68 CALM      30.02S
PINE RIVER     SUNNY     72  61  68 CALM      30.06S
BRAINERD       SUNNY     72  58  61 CALM      30.03S
STAPLES        SUNNY     72  57  60 CALM      30.04F
LONG PRAIRIE   FAIR      72  59  64 CALM      30.06S
LITTLE FALLS   PTSUNNY   72  59  64 CALM      30.04F
LITCHFIELD     CLOUDY    73  70  88 CALM      30.05S
BUFFALO        CLOUDY    73  65  78 CALM      30.04S
MAPLE LAKE     CLOUDY    73  70  91 CALM      30.04S
HUTCHINSON     CLOUDY    72  71  96 CALM      30.05S
$$
MNZ037-044-045-052-053-261600-
   East Central Minnesota

CITY           SKY/WX    TMP DP  RH WIND       PRES   REMARKS
PRINCETON      CLOUDY    73  70  88 W3        30.03R
MORA           CLOUDY    70  63  78 N5        30.04S
CAMBRIDGE      PTSUNNY   73  64  73 NW3       30.01R
RUSH CITY      HVY RAIN  71  66  84 NW5       30.02S
MOOSE LAKE     MOSUNNY   72  63  73 CALM      30.01R
HINCKLEY       FAIR      70  66  88 NW5       30.02S
CLOQUET        SUNNY     72  57  60 CALM      30.01S
MCGREGOR       SUNNY     72  61  68 CALM      30.03R
$$
MNZ071>073-080-081-089-090-097-098-261600-
   Southwest Minnesota

CITY           SKY/WX    TMP DP  RH WIND       PRES   REMARKS
MONTEVIDEO     CLOUDY    73  70  88 E5        30.05R
GRANITE FALLS  CLOUDY    74  68  80 NE5       30.06R
CANBY          CLOUDY    73  66  78 CALM      30.07R
MARSHALL       CLOUDY    73  69  87 NE13      30.05S FOG
REDWOOD FALLS  CLOUDY    71  69  93 SE6       30.03F FOG
OLIVIA         CLOUDY    72  68  88 E3        30.04R
PIPESTONE      MOSUNNY   73  70  88 NE10      30.04S
WINDOM         CLOUDY    73  70  88 CALM      30.04S
WORTHINGTON    CLOUDY    72  69  90 E8        30.04F
JACKSON        CLOUDY    72  68  88 CALM      30.04S
TRACY          CLOUDY    73  71  95 N6        30.04F
SLAYTON        HVY RAIN  70  67  90 NE3       30.06R
$$
MNZ065>067-074>077-082>085-091>093-261600-
   South Central Minnesota

CITY           SKY/WX    TMP DP  RH WIND       PRES   REMARKS
MANKATO        CLOUDY    72  70  93 W3        30.04R
NEW ULM        CLOUDY    72  70  94 CALM      30.02F
ST JAMES       CLOUDY    73  72  94 CALM      30.03F
FAIRMONT       CLOUDY    72  70  93 SE6       30.04S
GLENCOE        CLOUDY    73  73 100 NW5       30.04R
FARIBAULT      RAIN      72  70  94 SW6       30.03R
OWATONNA       DRIZZLE   72  70  94 S7        30.03F
WASECA         DRIZZLE   72  70  94 S7        30.04S
ALBERT LEA     LGT RAIN  72  70  94 CALM      30.04F
$$
MNZ078>079-086>088-094>096-261600-
   Southeast Minnesota

CITY           SKY/WX    TMP DP  RH WIND       PRES   REMARKS
ROCHESTER      LGT RAIN  70  69  97 W9        30.03R
RED WING       CLOUDY    72  70  94 W6        30.00R
STANTON        LGT RAIN  71  68  91 NW6       30.01S
DODGE CENTER   DRIZZLE   70  66  88 SW9       30.05R
WINONA         CLOUDY    73  70  88 CALM      30.00R
AUSTIN         HVY RAIN  70  66  88 NW6       30.04F
PRESTON        CLOUDY    71  68  88 S3        30.05R
$$
ABBREVIATIONS USED IN REMARKS
   TC - TEMPERATURES IN CELSIUS
  WCI - WIND CHILL INDEX
   HX - HEAT INDEX
  VSB - VISIBILITY
$$




USA.gov is the U.S. government's official web portal to all federal, state and local government web resources and services.